Wind_Speed
32 31 32 32 34 35 33 31 29 27 26 26 26 26 25 25 24 23 22 21 20 20 20 19 18 18 17 17 17 16 15 15 15 15 15 15 14 14 14 13 12 12 12 12 12 11 11 11 11
33 33 33 34 36 36 34 31 29 27 27 28 28 28 27 26 26 24 23 22 21 21 21 21 20 20 19 19 18 18 17 17 17 17 17 17 17 16 16 16 15 15 14 14 14 13 13 13 13
34 33 34 35 36 35 33 30 29 29 29 29 29 29 29 27 26 25 24 23 23 22 22 22 22 21 21 20 20 19 19 19 19 19 19 20 19 19 19 18 18 17 17 16 16 15 15 15 14
33 34 35 36 35 34 33 31 30 29 30 30 30 29 29 28 27 26 26 25 25 24 23 23 23 23 22 22 21 21 20 20 20 20 21 21 22 21 21 20 20 20 19 19 18 18 17 17 17
33 34 34 34 34 33 32 31 30 30 30 30 30 30 29 29 28 27 27 27 26 25 25 25 24 24 24 24 23 22 22 22 22 22 22 22 22 22 22 21 21 21 21 21 21 20 19 19 19
32 34 35 33 33 33 33 32 32 32 32 31 31 31 30 30 29 29 29 28 27 27 26 25 26 26 26 26 25 24 23 23 23 23 23 23 22 23 23 23 23 23 22 22 22 22 22 21 21
31 32 33 34 33 33 33 33 33 33 34 33 33 32 31 32 31 30 30 29 29 28 28 28 28 28 28 28 27 26 25 25 24 24 24 24 24 24 24 24 25 25 24 24 23 23 23 22 23
30 31 32 33 34 34 34 34 35 35 35 35 35 34 33 33 33 32 32 31 30 31 30 30 30 30 30 30 30 29 28 27 26 26 25 25 25 26 26 26 27 27 26 26 26 25 25 24 24
29 31 31 32 33 35 35 36 36 37 36 36 37 37 36 35 34 34 34 33 32 33 33 32 33 32 33 33 32 31 31 30 29 28 28 28 28 28 28 27 28 28 28 27 27 27 27 27 26
28 29 31 32 33 34 35 37 38 38 38 38 38 38 38 38 36 36 35 35 35 35 35 36 36 35 34 34 33 33 33 32 31 30 30 30 29 29 29 29 28 29 29 29 28 28 28 28 28
29 29 30 33 33 34 35 37 38 39 40 40 40 40 40 41 40 38 38 38 38 37 37 38 38 37 36 35 34 35 34 34 34 33 32 30 30 31 30 30 30 30 30 30 30 29 29 29 29
29 31 31 33 34 34 35 37 38 39 39 41 42 41 41 42 42 41 41 41 40 40 39 39 40 39 38 37 36 35 36 36 35 35 33 32 31 31 32 32 31 31 31 31 31 31 30 30 30
31 32 33 34 34 34 34 35 38 38 39 41 42 42 42 42 43 43 43 43 43 42 41 41 42 41 40 39 38 37 37 37 36 36 35 34 33 32 33 33 32 32 32 32 32 32 32 31 31
30 32 33 34 34 34 35 35 37 38 39 40 42 43 43 43 44 44 45 45 44 44 43 42 42 42 42 41 40 39 39 38 37 37 36 36 34 33 33 34 34 34 34 34 33 33 33 32 32
29 31 32 33 34 35 36 36 37 37 39 40 41 42 43 44 45 45 45 45 44 45 44 44 43 44 44 43 42 41 41 41 39 37 37 37 37 36 34 35 36 36 36 35 35 35 34 34 34
28 30 32 32 33 35 36 36 35 37 38 39 40 41 41 43 45 45 45 44 44 44 44 44 45 45 45 45 44 43 43 43 42 40 38 39 38 38 37 36 37 38 38 38 37 37 36 36 36
28 29 30 31 32 34 36 36 34 35 37 39 41 41 41 42 43 44 45 43 43 44 44 44 44 46 46 45 45 45 44 43 43 42 41 40 40 39 40 39 39 39 40 39 38 38 37 37 37
26 28 29 30 31 33 35 35 35 35 37 38 40 41 41 42 42 43 44 44 43 43 44 45 44 45 46 46 46 46 45 45 44 43 44 43 41 42 42 42 42 41 41 40 40 40 39 38 38
25 26 27 28 28 31 33 33 34 35 36 38 39 39 40 41 42 42 43 44 44 43 43 44 43 44 46 46 45 46 46 47 46 45 44 44 44 43 43 42 43 43 41 41 40 40 39 40 39
22 23 24 26 26 28 30 31 31 32 34 35 36 37 37 39 41 42 44 44 43 43 43 43 44 43 44 45 45 46 47 47 47 46 45 45 45 44 44 43 42 41 40 41 41 41 41 42 41
23 23 24 25 24 26 29 31 31 31 32 33 34 35 36 37 39 40 41 42 43 43 44 43 42 43 44 45 46 45 45 47 46 47 46 45 45 44 44 44 43 43 42 41 41 41 41 41 41
21 22 23 23 23 24 26 29 29 30 30 31 33 34 34 35 37 39 39 42 42 42 43 44 43 44 45 45 46 46 46 46 46 46 47 46 45 45 45 45 45 44 43 42 42 41 41 41 41
20 22 22 22 23 23 23 27 26 28 29 29 30 32 34 35 37 38 39 41 41 42 42 43 43 42 43 44 45 46 45 45 46 46 46 47 47 46 46 46 46 45 44 44 44 42 42 42 41
20 21 21 22 23 23 23 25 26 28 28 28 29 30 32 34 36 38 39 39 40 41 42 43 43 42 40 41 43 43 43 44 44 45 46 46 46 46 48 48 47 46 44 44 44 43 42 41 41
20 21 21 22 23 24 24 25 25 26 27 28 30 31 32 33 34 36 37 38 39 40 41 42 42 42 41 41 42 43 42 42 43 43 44 45 45 44 45 46 45 45 44 44 45 44 44 43 41
20 21 22 23 24 25 25 26 25 26 27 28 29 31 32 33 34 34 35 36 38 39 40 41 41 40 40 42 42 42 42 42 43 43 43 43 44 43 43 43 44 44 43 43 44 44 43 42 41
20 20 21 24 25 25 26 25 24 25 26 27 27 28 29 30 31 32 34 35 35 36 37 39 39 38 38 39 41 41 42 41 40 41 42 41 41 42 42 42 42 41 41 42 43 43 42 41 41
20 21 22 23 25 25 25 24 24 24 26 28 27 27 27 29 30 31 32 32 34 36 36 37 37 37 36 37 38 39 40 39 40 40 39 39 39 39 40 39 40 40 41 42 42 43 42 41 40
21 21 22 23 24 25 26 25 25 25 26 27 27 27 27 28 29 29 29 30 31 33 34 35 35 35 35 36 37 38 39 40 40 40 40 39 39 39 40 39 39 39 39 40 42 42 41 40 40
22 22 22 23 24 25 27 26 26 24 24 24 25 26 26 26 26 26 27 28 29 30 31 32 32 33 34 36 36 38 40 41 40 39 39 39 39 40 39 37 38 38 38 39 40 40 40 40 40
Wind_Direction
249 249 249 249 249 249 248 247 246 244 245 246 248 248 250 251 251 252 252 251 250 249 251 252 252 253 253 253 254 256 257 258 260 261 260 258 258 259 260 260 262 265 267 268 268 271 273 275 276
248 248 249 248 249 249 247 245 244 244 246 246 248 249 250 251 251 252 252 252 251 250 251 252 253 253 253 253 254 256 258 260 260 261 260 258 257 257 257 258 260 263 265 266 267 268 270 270 270
248 247 248 248 248 247 246 245 245 245 245 246 248 249 250 252 252 252 252 252 252 251 251 252 253 253 253 253 255 257 259 260 260 261 261 260 258 257 255 256 258 261 264 265 266 267 268 269 268
247 246 247 246 246 246 247 246 245 245 245 246 247 249 249 251 252 252 252 253 253 252 251 252 254 254 254 254 255 257 259 260 261 262 262 261 259 257 256 257 258 260 262 265 266 266 268 268 268
245 244 245 244 245 246 247 247 246 245 246 246 247 248 250 250 251 251 252 254 253 251 251 251 254 256 256 256 256 257 258 260 261 263 261 260 259 257 256 256 258 259 260 263 265 267 267 267 269
243 243 243 244 245 246 247 247 246 245 246 247 247 247 248 250 251 251 251 252 251 249 250 251 254 256 257 258 258 258 259 260 262 261 260 258 258 258 257 256 257 259 261 263 264 266 267 269 270
242 243 244 245 246 247 247 247 246 245 246 248 248 249 249 250 252 252 252 251 251 251 251 251 253 256 259 258 258 258 259 262 260 259 260 259 258 258 258 257 258 259 261 263 265 265 266 268 270
241 242 244 246 247 247 247 247 247 246 246 248 249 249 250 250 251 252 252 251 250 251 251 252 255 255 258 258 258 258 259 261 259 258 259 260 260 259 258 258 258 259 261 263 264 265 266 268 270
241 243 245 247 248 249 248 249 248 248 248 248 249 250 250 251 252 252 252 251 252 253 253 254 255 256 257 257 257 258 259 259 259 258 259 259 261 261 260 259 259 260 262 264 264 265 266 267 269
243 245 246 248 250 251 250 249 249 248 249 249 249 250 250 251 253 254 252 252 253 254 254 255 255 255 256 256 256 257 259 259 259 259 259 261 262 262 260 259 259 259 261 263 265 266 266 267 269
248 249 249 249 251 251 251 251 250 250 250 250 250 251 251 252 253 254 254 254 255 255 256 255 254 255 255 255 256 257 258 258 258 259 260 261 261 260 259 259 259 260 262 264 265 266 267 266 268
256 253 252 252 251 251 252 252 252 252 252 251 251 252 252 253 254 255 255 255 255 256 255 254 254 254 254 254 256 258 257 257 258 259 258 258 260 260 259 259 260 261 262 264 265 267 267 268 270
259 256 254 253 252 251 252 253 253 253 254 254 253 252 253 254 254 255 256 255 255 255 254 254 253 253 254 255 255 257 258 256 256 257 256 257 259 259 259 259 260 261 263 264 265 266 267 269 270
261 258 256 254 253 254 254 253 254 254 255 256 255 254 254 255 256 255 256 255 255 254 253 253 253 253 253 254 255 256 256 255 255 255 256 257 257 258 258 258 259 260 261 263 265 266 267 269 270
263 260 258 256 254 255 256 254 254 255 256 257 256 257 256 256 257 256 256 255 253 252 252 252 252 252 253 253 255 255 255 253 252 254 255 256 256 256 258 258 259 260 261 262 264 266 266 269 270
265 264 261 258 256 256 257 257 257 257 258 259 258 258 257 257 256 256 255 255 253 252 252 252 251 251 252 253 253 253 253 251 251 253 253 255 255 255 256 259 259 261 262 263 264 265 266 269 270
267 267 265 261 259 258 258 259 257 259 261 262 261 259 257 256 256 256 255 254 252 251 252 253 253 251 251 252 252 252 252 251 251 251 251 253 254 256 256 257 260 261 262 263 264 265 266 268 270
270 269 267 266 263 261 260 260 259 259 262 263 262 262 259 257 256 255 255 254 254 253 253 253 254 252 251 251 252 252 251 250 250 250 250 253 256 257 256 257 258 260 262 263 264 265 266 268 271
273 271 271 270 267 263 261 262 262 262 264 265 264 263 261 259 257 256 255 255 255 255 255 254 255 255 253 252 251 251 250 250 249 249 251 253 255 256 257 257 258 260 262 263 264 266 267 268 272
275 274 275 274 272 268 264 263 263 263 264 266 265 263 261 259 259 257 256 255 255 256 256 255 254 255 256 254 251 251 251 251 250 250 251 252 256 257 257 257 257 258 261 263 264 265 267 269 271
277 277 279 278 274 273 271 266 266 266 267 265 265 264 261 259 258 257 256 255 255 257 257 256 255 256 257 255 252 252 252 252 251 249 250 252 254 255 255 256 256 256 259 261 263 266 267 268 270
281 281 282 280 276 275 276 275 271 269 268 265 265 264 263 260 260 258 255 255 255 257 258 256 256 257 257 256 253 252 251 251 250 249 249 251 253 254 255 255 256 257 257 260 262 265 266 268 271
287 284 284 282 279 278 280 281 278 274 271 267 266 267 267 264 262 259 256 255 256 256 256 256 257 258 257 256 253 252 251 252 250 249 250 250 252 255 255 255 257 255 256 259 262 264 266 268 271
292 289 286 284 282 282 285 286 283 279 277 272 270 269 268 265 263 261 259 258 257 256 256 255 257 258 258 255 252 251 251 251 249 248 249 250 252 254 254 255 257 255 255 257 260 261 265 267 268
295 293 292 290 287 287 290 289 290 287 281 276 275 273 270 267 264 262 261 259 258 257 258 255 256 258 258 256 252 249 251 250 250 250 250 250 251 253 254 254 256 256 255 257 258 260 263 265 268
300 297 295 295 294 293 293 293 295 292 287 283 280 276 272 269 267 265 263 261 260 258 258 256 258 259 259 257 252 249 251 252 251 251 250 250 251 251 253 255 256 256 256 257 259 260 263 267 269
304 303 298 297 298 298 299 298 296 293 290 289 287 280 275 272 272 270 266 264 260 259 259 256 258 258 258 257 253 250 249 251 250 249 249 251 252 253 254 255 258 257 257 257 258 261 264 268 270
304 306 303 300 300 301 303 302 300 296 294 292 290 284 280 279 277 273 268 265 261 259 258 259 259 260 259 259 256 253 250 251 250 249 247 249 252 253 254 256 259 258 257 257 259 263 265 267 270
304 305 304 301 301 301 303 305 303 299 298 297 295 288 284 282 279 274 269 266 261 258 258 259 260 260 260 259 257 254 252 253 254 251 249 252 254 253 254 258 259 258 259 260 262 264 266 268 269
302 302 303 303 303 300 302 307 305 301 299 300 300 296 289 284 281 275 271 268 264 261 259 258 259 260 259 259 257 255 254 254 253 250 250 251 252 251 255 260 259 259 261 262 262 264 266 267 268
Height
5798 5799 5801 5803 5804 5804 5806 5810 5814 5817 5820 5822 5824 5825 5828 5830 5832 5836 5836 5836 5837 5838 5840 5841 5841 5843 5844 5845 5846 5846 5847 5848 5848 5849 5850 5850 5851 5852 5853 5853 5854 5855 5855 5856 5856 5856 5857 5857 5857
5790 5792 5795 5795 5796 5797 5801 5805 5809 5812 5814 5817 5818 5820 5822 5824 5826 5829 5830 5831 5832 5834 5835 5837 5838 5839 5840 5841 5842 5843 5844 5844 5845 5845 5846 5847 5847 5848 5849 5850 5851 5852 5853 5853 5854 5853 5854 5854 5854
5783 5785 5787 5787 5788 5791 5796 5800 5804 5806 5808 5810 5812 5814 5816 5819 5821 5823 5825 5826 5828 5830 5831 5832 5834 5835 5836 5837 5838 5839 5840 5840 5841 5841 5842 5843 5843 5844 5845 5846 5847 5848 5849 5850 5850 5851 5851 5851 5851
5775 5777 5779 5780 5782 5786 5790 5794 5797 5800 5802 5805 5807 5809 5811 5814 5816 5818 5819 5821 5823 5824 5826 5828 5829 5830 5831 5832 5833 5834 5835 5836 5836 5837 5837 5838 5838 5839 5841 5842 5843 5844 5845 5846 5846 5847 5847 5848 5848
5767 5769 5770 5772 5776 5780 5784 5788 5791 5794 5796 5799 5801 5803 5806 5808 5810 5812 5814 5815 5817 5819 5821 5823 5824 5825 5826 5827 5829 5829 5830 5830 5831 5831 5831 5832 5832 5834 5835 5837 5838 5839 5840 5841 5842 5843 5843 5843 5844
5760 5762 5764 5766 5770 5774 5778 5781 5784 5787 5789 5792 5795 5797 5800 5802 5804 5806 5808 5810 5812 5814 5816 5818 5819 5820 5821 5822 5823 5824 5824 5825 5825 5825 5825 5826 5827 5828 5830 5831 5833 5834 5835 5836 5837 5838 5838 5838 5839
5753 5754 5757 5761 5764 5768 5771 5774 5777 5780 5782 5785 5788 5791 5794 5796 5798 5800 5802 5804 5806 5808 5810 5811 5813 5814 5815 5816 5817 5818 5818 5819 5819 5819 5820 5820 5821 5822 5824 5825 5827 5828 5829 5831 5832 5833 5833 5833 5834
5745 5748 5750 5754 5757 5761 5764 5766 5769 5772 5775 5778 5781 5784 5787 5790 5792 5794 5796 5798 5800 5802 5803 5805 5807 5808 5809 5810 5811 5812 5812 5812 5813 5813 5814 5814 5815 5816 5817 5819 5821 5822 5823 5824 5825 5826 5827 5827 5828
5739 5742 5744 5748 5751 5753 5756 5758 5761 5764 5767 5770 5773 5777 5780 5782 5784 5786 5789 5791 5793 5795 5796 5797 5799 5801 5802 5803 5804 5805 5805 5806 5806 5807 5807 5808 5809 5810 5811 5812 5813 5815 5816 5817 5818 5820 5820 5821 5822
5733 5735 5739 5741 5743 5745 5747 5750 5753 5756 5759 5762 5765 5768 5771 5774 5776 5779 5781 5784 5785 5787 5788 5790 5791 5793 5794 5795 5796 5797 5798 5798 5799 5800 5800 5801 5802 5803 5804 5805 5806 5808 5809 5811 5811 5812 5813 5814 5815
5727 5729 5732 5734 5735 5737 5739 5741 5744 5746 5750 5754 5757 5760 5762 5765 5767 5770 5773 5775 5777 5778 5780 5780 5782 5784 5785 5786 5787 5789 5790 5791 5792 5792 5793 5793 5794 5795 5796 5798 5799 5801 5802 5804 5804 5805 5806 5807 5808
5721 5723 5725 5726 5727 5729 5731 5733 5735 5738 5742 5744 5747 5750 5752 5755 5757 5760 5763 5765 5768 5769 5770 5771 5773 5774 5776 5777 5779 5780 5781 5782 5783 5784 5785 5785 5786 5787 5789 5790 5792 5794 5795 5796 5797 5798 5799 5800 5801
5714 5716 5717 5718 5719 5721 5722 5724 5726 5730 5733 5734 5737 5740 5742 5744 5747 5749 5752 5755 5757 5759 5760 5761 5763 5765 5766 5768 5770 5772 5773 5774 5775 5776 5777 5778 5778 5780 5781 5783 5785 5786 5787 5789 5790 5790 5792 5792 5793
5707 5708 5709 5710 5711 5713 5714 5716 5718 5722 5723 5725 5727 5730 5732 5734 5736 5738 5740 5742 5744 5747 5749 5750 5752 5754 5756 5758 5760 5762 5763 5765 5766 5767 5769 5770 5770 5772 5773 5775 5777 5778 5780 5781 5782 5783 5784 5785 5785
5700 5701 5702 5703 5704 5705 5706 5708 5710 5713 5714 5716 5717 5720 5722 5723 5724 5726 5728 5730 5732 5735 5737 5739 5742 5743 5745 5747 5750 5751 5753 5755 5757 5758 5760 5761 5763 5764 5765 5767 5769 5771 5772 5773 5774 5775 5776 5777 5778
5694 5694 5695 5697 5696 5697 5698 5699 5703 5703 5704 5706 5708 5709 5711 5712 5713 5715 5716 5718 5720 5723 5726 5728 5730 5732 5734 5736 5739 5741 5742 5745 5747 5749 5751 5752 5754 5756 5758 5759 5761 5763 5764 5765 5766 5767 5769 5770 5770
5687 5687 5688 5690 5689 5689 5689 5691 5695 5695 5695 5696 5698 5699 5701 5702 5703 5704 5705 5707 5709 5712 5714 5717 5719 5721 5723 5725 5728 5730 5732 5734 5737 5739 5742 5743 5746 5747 5749 5751 5752 5754 5755 5757 5758 5759 5761 5761 5762
5682 5681 5682 5682 5682 5682 5682 5683 5686 5686 5686 5687 5687 5689 5690 5691 5693 5694 5695 5696 5698 5701 5703 5706 5708 5710 5712 5715 5717 5720 5722 5724 5727 5730 5732 5734 5736 5738 5740 5742 5743 5744 5746 5747 5749 5750 5752 5753 5754
5676 5675 5675 5675 5675 5674 5675 5675 5677 5678 5677 5678 5678 5678 5679 5681 5682 5683 5684 5686 5688 5690 5693 5695 5697 5700 5702 5704 5706 5709 5711 5714 5717 5720 5722 5724 5726 5728 5730 5732 5734 5735 5736 5738 5740 5741 5742 5743 5744
5671 5670 5670 5669 5669 5668 5668 5668 5668 5668 5668 5668 5667 5668 5668 5670 5672 5673 5674 5675 5677 5680 5682 5685 5687 5689 5690 5693 5695 5697 5700 5703 5706 5709 5711 5714 5716 5718 5721 5722 5724 5726 5727 5728 5730 5731 5733 5734 5734
5666 5665 5665 5664 5663 5662 5662 5662 5662 5661 5660 5659 5659 5659 5659 5660 5661 5662 5664 5666 5668 5670 5672 5675 5676 5678 5679 5681 5684 5686 5688 5691 5694 5698 5701 5703 5705 5708 5710 5713 5714 5716 5718 5719 5721 5722 5723 5724 5725
5661 5660 5659 5658 5656 5656 5656 5654 5656 5654 5652 5652 5651 5651 5651 5651 5652 5653 5654 5656 5658 5661 5662 5664 5666 5668 5668 5670 5672 5675 5677 5680 5684 5687 5690 5693 5695 5697 5700 5703 5705 5707 5708 5710 5711 5713 5714 5715 5715
5657 5656 5654 5653 5651 5651 5649 5647 5649 5647 5645 5645 5644 5643 5643 5643 5643 5644 5644 5646 5648 5650 5652 5654 5656 5657 5658 5659 5661 5663 5665 5669 5672 5676 5679 5682 5685 5687 5690 5693 5695 5697 5699 5700 5702 5704 5705 5705 5706
5652 5651 5650 5648 5646 5646 5644 5641 5641 5640 5639 5638 5637 5636 5634 5634 5634 5634 5635 5637 5638 5640 5642 5644 5645 5647 5648 5650 5651 5652 5655 5658 5662 5665 5669 5672 5675 5677 5680 5683 5685 5686 5689 5691 5693 5694 5695 5695 5696
5648 5647 5645 5643 5641 5640 5639 5635 5635 5634 5632 5630 5629 5628 5626 5625 5625 5626 5627 5628 5629 5631 5632 5634 5636 5637 5639 5640 5642 5643 5646 5648 5652 5656 5659 5662 5665 5668 5669 5672 5674 5676 5679 5681 5683 5684 5685 5686 5687
5644 5643 5641 5639 5637 5636 5633 5631 5631 5628 5625 5623 5621 5619 5618 5617 5617 5617 5618 5619 5620 5622 5623 5625 5627 5629 5630 5631 5633 5635 5638 5640 5643 5646 5649 5652 5655 5657 5659 5662 5664 5667 5669 5671 5673 5675 5676 5676 5677
5640 5638 5637 5634 5632 5630 5628 5627 5625 5622 5619 5617 5614 5612 5610 5609 5609 5608 5609 5610 5610 5612 5613 5616 5618 5619 5621 5622 5624 5626 5629 5631 5634 5637 5640 5643 5645 5648 5650 5653 5655 5657 5660 5662 5664 5665 5666 5666 5667
5636 5634 5632 5629 5626 5624 5623 5621 5620 5616 5613 5611 5608 5605 5603 5602 5601 5600 5600 5601 5601 5603 5605 5607 5609 5610 5612 5614 5616 5618 5620 5622 5625 5627 5630 5633 5636 5639 5641 5644 5646 5648 5650 5652 5654 5655 5656 5656 5657
5632 5630 5627 5624 5622 5619 5617 5619 5615 5611 5608 5605 5602 5599 5597 5595 5593 5592 5592 5592 5593 5594 5597 5599 5601 5602 5604 5605 5608 5610 5612 5613 5616 5619 5622 5624 5627 5630 5633 5636 5637 5639 5641 5642 5644 5645 5646 5647 5647
5627 5625 5623 5621 5618 5615 5612 5615 5609 5606 5602 5599 5596 5593 5590 5588 5587 5586 5586 5586 5586 5588 5590 5592 5593 5594 5596 5598 5599 5601 5603 5604 5607 5610 5613 5616 5618 5621 5624 5626 5628 5630 5632 5633 5635 5636 5637 5638 5638